Weather History for Peoria, IL

Change the Weather History Date:

Monday, March 31, 2014

  Actual Average Record
Temperature  
Mean Temperature 56 °F 47 °F  
Max Temperature 67 °F 57 °F 84 °F (1986)
Min Temperature 45 °F 36 °F 12 °F (1923)
Degree Days  
Heating Degree Days 9 19  
Month to date heating degree days 934 757  
Since 1 July heating degree days 6113 5272  
Cooling Degree Days 0 0  
Month to date cooling degree days 0 1  
Year to date cooling degree days 0 1  
Growing Degree Days 6 (Base 50)    
Moisture  
Dew Point 37 °F    
Average Humidity 52    
Maximum Humidity 70    
Minimum Humidity 34    
Precipitation  
Precipitation 0.00 in 0.11 in 2.59 in (1933)
Month to date precipitation 1.94 2.80  
Year to date precipitation 6.81 6.37  
Snow  
Snow 0.00 in 0.00 in 3.60 in (1926)
Month to date snowfall 7.1 2.7  
Since 1 July snowfall 57.3 24.0  
Snow Depth 0.00 in    
Sea Level Pressure  
Sea Level Pressure 29.86 in    
Wind  
Wind Speed 20 mph (South)    
Max Wind Speed 32 mph    
Max Gust Speed 46 mph    
Visibility 10 miles    
Events      
T = Trace of Precipitation, MM = Missing Value Source: NWS Daily Summary

Daily Weather History Graph

Daily Weather History Graph

Search for Another Location

Airport:

Trip Planner

Search our weather history database for the weather conditions in past years. The results will help you decide how hot, cold, wet, or windy it might be!

Date:

Astronomy

Mar. 31, 2014 Rise Set
Actual Time 6:43 AM CDT 7:22 PM CDT
Civil Twilight 6:16 AM CDT 7:50 PM CDT
Nautical Twilight 5:43 AM CDT 8:22 PM CDT
Astronomical Twilight 5:10 AM CDT 8:56 PM CDT
Moon 7:07 AM CDT (3/31) 8:41 PM CDT (3/31)
Length of Visible Light 13h 33m
Length of Day
12h 38m
New Moon, 1% of the Moon is Illuminated
Mar 31
New Moon
Apr 7
First Quarter
Apr 15
Full
Apr 22
Last Quarter
Apr 29
New

Hourly Weather History & Observations

Time (CDT) Temp. Windchill Dew Point Humidity Pressure Visibility Wind Dir Wind Speed Gust Speed Precip Events Conditions
12:54 AM 48.9 °F - 33.1 °F 54% 30.02 in 10.0 mi South 15.0 mph - N/A   Clear
1:54 AM 46.9 °F - 33.1 °F 59% 30.02 in 10.0 mi South 13.8 mph - N/A   Clear
2:54 AM 46.9 °F - 34.0 °F 61% 30.02 in 10.0 mi South 13.8 mph - N/A   Clear
3:54 AM 46.9 °F - 35.1 °F 63% 30.00 in 10.0 mi South 13.8 mph - N/A   Clear
4:54 AM 46.0 °F 39.9 °F 36.0 °F 68% 29.99 in 10.0 mi SSE 13.8 mph - N/A   Clear
5:54 AM 46.9 °F - 36.0 °F 66% 29.98 in 8.0 mi South 13.8 mph - N/A   Clear
6:54 AM 45.0 °F 37.9 °F 36.0 °F 71% 29.98 in 6.0 mi South 16.1 mph - N/A   Haze
7:54 AM 48.9 °F - 36.0 °F 61% 29.95 in 10.0 mi South 21.9 mph 29.9 mph N/A   Clear
8:54 AM 51.1 °F - 36.0 °F 56% 29.94 in 10.0 mi South 21.9 mph 31.1 mph N/A   Clear
9:54 AM 54.0 °F - 37.0 °F 53% 29.95 in 10.0 mi South 16.1 mph 24.2 mph N/A   Clear
10:54 AM 59.0 °F - 37.9 °F 46% 29.94 in 10.0 mi South 20.7 mph 32.2 mph N/A   Clear
11:54 AM 64.0 °F - 39.0 °F 40% 29.89 in 10.0 mi South 28.8 mph 36.8 mph N/A   Clear
12:54 PM 66.0 °F - 39.0 °F 37% 29.86 in 10.0 mi South 26.5 mph 38.0 mph N/A   Clear
1:54 PM 64.9 °F - 39.0 °F 39% 29.83 in 10.0 mi SSE 23.0 mph 36.8 mph N/A   Scattered Clouds
2:54 PM 66.0 °F - 37.0 °F 34% 29.78 in 10.0 mi South 26.5 mph 39.1 mph N/A   Scattered Clouds
3:54 PM 64.9 °F - 37.9 °F 37% 29.75 in 10.0 mi South 25.3 mph 38.0 mph N/A   Clear
4:54 PM 64.9 °F - 39.9 °F 40% 29.72 in 10.0 mi South 26.5 mph 39.1 mph N/A   Scattered Clouds
5:54 PM 64.9 °F - 39.9 °F 40% 29.71 in 10.0 mi South 27.6 mph 42.6 mph N/A   Mostly Cloudy
6:54 PM 64.9 °F - 39.0 °F 39% 29.70 in 10.0 mi South 27.6 mph 38.0 mph N/A   Overcast
7:54 PM 62.1 °F - 39.9 °F 44% 29.71 in 10.0 mi South 23.0 mph 32.2 mph N/A   Scattered Clouds
8:54 PM 61.0 °F - 39.0 °F 44% 29.70 in 10.0 mi South 23.0 mph 34.5 mph N/A   Clear
9:54 PM 59.0 °F - 39.9 °F 49% 29.73 in 10.0 mi South 18.4 mph 27.6 mph N/A   Clear
10:54 PM 57.9 °F - 41.0 °F 53% 29.73 in 10.0 mi South 17.3 mph - N/A   Partly Cloudy
11:54 PM 55.0 °F - 41.0 °F 59% 29.73 in 10.0 mi South 13.8 mph - N/A   Clear